KUIPER-00075

Last updated on Sat Aug 16 2025 00:02:05 GMT+0000 (Coordinated Universal Time)

1 64822U 25151G 25227.46131483 .00027406 00000+0 76098-3 0 9995 2 64822 51.8770 141.9905 0004466 245.7028 114.3492 15.36682072 4636
UTC large
Height (km)
Speed (km/s)
/
Latitude / Longitude
Inclination (degrees)
Orbital Period (minutes)
Azimuth
Elevation
Range (km)
Doppler Factor

Next 0 passes for location: London (51.5072 / 0.1276)

Sorry there are no passes over London.